{"data":{"norad_id":66824,"epoch":"2026-05-25T03:06:35.643744Z","epoch_age_seconds":59910,"freshness":"FRESH","line1":"1 66824U 25280D   26145.12957921  .00004174  00000+0  35734-3 0  9997","line2":"2 66824  70.0004 141.8165 0003256 270.6808  89.3978 14.98334071 27522","mean_motion":14.98334071,"eccentricity":0.0003256,"inclination_deg":70.0004,"raan_deg":141.8165,"arg_perigee_deg":270.6808,"mean_anomaly_deg":89.3978,"bstar":0.00035734,"rev_number":2752,"period_min":96.106738001288,"perigee_km":569.78032303499,"apogee_km":574.30628044749,"semimajor_km":6950.1803017412,"source":"CELESTRAK","updated_at":"2026-05-25T13:38:21.333941Z"}}